[[{"header":{"parameterUnit":"m.s-1","parameterCategory":1,"la1":30.2991,"la2":30.254,"lo1":-89.0895,"lo2":-89.0444,"dy":0.0017,"dx":0.0017,"nx":28,"ny":28,"refTime":"2023-10-21T03:00:00:Z","depth":0,"parameterNumber":2,"parameterNumberName":"U-component_of_WINDS"},"data":[0,0,0,0,0,0,0,0,0,0,0,0,0,0,0,0,0,0,0,0,0,0,0,0,0,0,0,0,0,0,0,0,0,0,0,0,0,0,0,0,0,0,0,0,0,0,0,0,0,0,0,0,0,0,0,0,0,0,0.0142,0.0144,0,0.0257,0.0258,0.0259,0.0307,0.0307,0.0307,0.0306,0.0424,0.0427,0.043,0,0,0,0,0,0,0,0,0,0,0,0,0,-0.0035,-0.0032,0.0142,0.0144,0.0145,0.0257,0.0258,0.026,0.0307,0.0307,0.0307,0.0306,0.0423,0.0427,0.0431,0,0,0,0,0,0,0,0,0,0,0,0,0,0.0057,-0.0031,0.0142,0.0182,0.0187,0.0256,0.0258,0.026,0.0307,0.0307,0.0307,0.0306,0.0421,0.0426,0.0431,0.0469,0,0,0.0446,0.0449,0,0,0,0,0,0,0,0,0.0051,0.0063,0.0175,0.018,0.0185,0.0267,0.0239,0.033,0.0307,0.0262,0.0306,0.0306,0.0372,0.0381,0.0403,0.0475,0.048,0.0447,0.045,0.0452,0.0454,0,0,0,0,0,0,0,0.0045,0.0058,0.0188,0.0177,0.0183,0.0195,0.0207,0.0256,0.0317,0.0266,0.0269,0.0282,0.0375,0.0398,0.0406,0.0481,0.0447,0.0451,0.0454,0.0456,0.0589,0.0589,0,0,0,0,0,0,0.0032,0.0053,0.0184,0.0191,0.0116,0.0198,0.0212,0.0241,0.0317,0.0328,0.0282,0.0284,0.039,0.04,0.0411,0.046,0.0452,0.0457,0.046,0.0588,0.0589,0.059,0,0,0,0,0,0,0.0028,0.0043,0.0179,0.0123,0.0141,0.0201,0.0234,0.0244,0.0267,0.033,0.0341,0.0295,0.039,0.0404,0.0454,0.0465,0.0459,0.0464,0.0588,0.0589,0.0589,0.0558,0,0,0,0,0,0,0.0023,0.0042,0.0057,0.0123,0.0144,0.0221,0.0234,0.0246,0.0276,0.0279,0.0345,0.0355,0.0391,0.0446,0.0459,0.0471,0.0468,0.0587,0.0588,0.0589,0.0559,0.0558,0.0557,0,0,0,0,0,0.0016,0.0043,0.0057,0.0073,0.0164,0.0221,0.0233,0.0274,0.0277,0.0292,0.0332,0.0353,0.0461,0.0451,0.0466,0.048,0.0587,0.0588,0.0589,0.0559,0.0558,0.0557,0,0,0,0,0,0,-0.0023,0.0053,0.0069,0.0119,0.0163,0.0229,0.025,0.0272,0.0316,0.0318,0.0366,0.038,0.0426,0.0458,0.0446,0.052,0.0526,0.053,0.0498,0.0498,0.0497,0.0488,0.0472,0,0,0,0,0,-0.0026,0.0014,0.0078,0.0116,0.0137,0.019,0.0216,0.0243,0.0292,0.0311,0.0354,0.04,0.0445,0.0473,0.0517,0.0563,0.0578,0.058,0.058,0.0579,0.0582,0.0609,0.061,0.0593,0.0593,0.0593,0,0,-0.0032,0.0015,0.0037,0.0109,0.0147,0.0187,0.0205,0.0247,0.0278,0.0317,0.0367,0.0401,0.0455,0.0504,0.0527,0.0532,0.059,0.058,0.0579,0.0583,0.061,0.0611,0.0613,0.0594,0.0594,0.0594,0,0,-0.0021,0.0018,0.0054,0.0091,0.0148,0.0182,0.0191,0.0254,0.0277,0.0329,0.0359,0.0395,0.0471,0.0508,0.0537,0.0561,0.0582,0.0574,0.0571,0.0596,0.0597,0.0599,0.0607,0.061,0.0577,0.0577,0.0577,0,-0.0035,0.0027,0.0069,0.011,0.014,0.0177,0.0213,0.0248,0.0316,0.0336,0.034,0.0435,0.0474,0.0532,0.0537,0.056,0.0571,0.0567,0.0594,0.0596,0.0598,0.0606,0.0609,0.0575,0.0576,0.0576,0.0576,0,0.0007,0.0049,0.0071,0.0136,0.0169,0.0207,0.0255,0.0283,0.0307,0.0341,0.0392,0.0441,0.0495,0.0511,0.0535,0.0572,0.0573,0.0584,0.0591,0.0597,0.0606,0.061,0.0574,0.0574,0.0574,0.0575,0,0,-0.0003,0.0084,0.0091,0.0121,0.0186,0.022,0.0259,0.0312,0.0335,0.0381,0.0415,0.0478,0.0489,0.0522,0.055,0.0572,0.0588,0.0582,0.0584,0.0581,0.0631,0.0622,0.0625,0.0602,0.0603,0.0603,0.0627,0,0.0016,0.0088,0.0127,0.0183,0.0223,0.0258,0.0293,0.0336,0.0369,0.0407,0.0443,0.0487,0.0498,0.0518,0.0542,0.0581,0.0599,0.058,0.0634,0.0636,0.062,0.063,0.0621,0.0641,0.0631,0.0631,0.0632,0,0.0049,0.0093,0.0153,0.0213,0.0232,0.0262,0.0313,0.035,0.0399,0.0422,0.0457,0.0486,0.0528,0.0531,0.059,0.0577,0.0601,0.0624,0.0625,0.0632,0.0634,0.0637,0.0648,0.0651,0.0638,0.0637,0.0637,0,0.0035,0.011,0.0156,0.018,0.0251,0.0272,0.0302,0.0352,0.0381,0.0426,0.0446,0.0495,0.0522,0.056,0.06,0.0598,0.0655,0.0662,0.0675,0.0674,0.0686,0.0685,0.0701,0.0701,0.0701,0.0701,0.0701,0,0.0053,0.0088,0.0151,0.0179,0.0219,0.0263,0.0302,0.0335,0.0379,0.0414,0.0447,0.0479,0.0531,0.0569,0.0601,0.0645,0.0657,0.0676,0.0684,0.0674,0.0671,0.0691,0.069,0.0702,0.0702,0.0701,0.0701,0,0.0044,0.0088,0.014,0.0203,0.022,0.0247,0.0301,0.0329,0.0363,0.0407,0.042,0.0473,0.052,0.0564,0.0627,0.0648,0.0693,0.0703,0.0676,0.068,0.0691,0.069,0.0721,0.0727,0.0722,0.0722,0.0722,0,0.0053,0.0081,0.0147,0.0173,0.0203,0.0244,0.0274,0.0318,0.0348,0.0406,0.0428,0.0477,0.0519,0.0592,0.0636,0.0684,0.0696,0.0704,0.0704,0.0692,0.0697,0.0695,0.0698,0.0703,0.0703,0.0703,0.0703,0,0.0064,0.0084,0.0126,0.0175,0.021,0.0251,0.0293,0.0312,0.0365,0.0396,0.0445,0.0477,0.0541,0.0589,0.0642,0.0674,0.0697,0.0702,0.0708,0.0697,0.068,0.069,0.0674,0.0701,0.0702,0.0702,0.0702,0.0702,0.0064,0.0091,0.0141,0.0187,0.0223,0.0262,0.0291,0.0329,0.037,0.0425,0.0449,0.0497,0.0546,0.062,0.0651,0.069,0.0695,0.0703,0.0705,0.0707,0.0704,0.0674,0.0699,0.0699,0.07,0.07,0.07,0,0.0077,0.0111,0.0152,0.021,0.0246,0.0264,0.0312,0.0341,0.0383,0.0427,0.0467,0.0522,0.0569,0.0617,0.0667,0.0688,0.07,0.07,0.0699,0.0706,0.0697,0.0687,0.0689,0.0689,0.0689,0.0689,0.0689,0.0689,0.0088,0.0133,0.0159,0.0223,0.0257,0.0305,0.033,0.0366,0.0401,0.0461,0.05,0.0531,0.0576,0.0629,0.0673,0.0686,0.0703,0.0699,0.0715,0.0706,0.0706,0.0707,0.0698,0.0703,0.0703,0.0721,0.0721,0.0721]},{"header":{"parameterUnit":"m.s-1","parameterCategory":1,"la1":30.2991,"la2":30.254,"lo1":-89.0895,"lo2":-89.0444,"dy":0.0017,"dx":0.0017,"nx":28,"ny":28,"refTime":"2023-10-21T03:00:00:Z","depth":0,"parameterNumber":3,"parameterNumberName":"V-component_of_WINDS"},"data":[0,0,0,0,0,0,0,0,0,0,0,0,0,0,0,0,0,0,0,0,0,0,0,0,0,0,0,0,0,0,0,0,0,0,0,0,0,0,0,0,0,0,0,0,0,0,0,0,0,0,0,0,0,0,0,0,0,0,1.9586,1.9586,0,1.9581,1.9581,1.958,1.9552,1.9551,1.955,1.955,1.9544,1.9545,1.9545,0,0,0,0,0,0,0,0,0,0,0,0,0,1.9573,1.9573,1.9586,1.9586,1.9586,1.9581,1.9581,1.958,1.9552,1.9551,1.955,1.9549,1.9544,1.9545,1.9545,0,0,0,0,0,0,0,0,0,0,0,0,0,1.9574,1.9573,1.9586,1.9571,1.957,1.9581,1.9581,1.958,1.9552,1.9551,1.955,1.9549,1.9544,1.9544,1.9545,1.957,0,0,1.9547,1.9548,0,0,0,0,0,0,0,0,1.9574,1.9574,1.9573,1.9572,1.9571,1.9566,1.9574,1.9577,1.9552,1.9559,1.955,1.9548,1.9552,1.9552,1.9553,1.957,1.957,1.9548,1.9548,1.9548,1.9549,0,0,0,0,0,0,0,1.9574,1.9574,1.9584,1.9573,1.9572,1.9565,1.9564,1.9574,1.9561,1.9558,1.9556,1.9556,1.9551,1.9553,1.9553,1.957,1.9548,1.9548,1.9549,1.9549,1.9607,1.9608,0,0,0,0,0,0,1.9576,1.9575,1.9584,1.9584,1.957,1.9566,1.9565,1.9568,1.9561,1.9559,1.9557,1.9554,1.9552,1.9552,1.9553,1.9582,1.9548,1.9549,1.9549,1.9606,1.9607,1.9609,0,0,0,0,0,0,1.9576,1.9577,1.9584,1.9579,1.9579,1.9567,1.9571,1.9569,1.957,1.956,1.9558,1.956,1.9551,1.9552,1.9566,1.9581,1.9549,1.955,1.9605,1.9606,1.9608,1.9641,0,0,0,0,0,0,1.9575,1.9577,1.9586,1.9579,1.958,1.9598,1.9572,1.9569,1.9572,1.9569,1.9563,1.9561,1.955,1.9565,1.9567,1.9582,1.9551,1.9603,1.9606,1.9607,1.9638,1.9643,1.9647,0,0,0,0,0,1.9575,1.9596,1.9587,1.9588,1.9591,1.9599,1.9599,1.9587,1.9573,1.9582,1.9576,1.9561,1.9579,1.9567,1.9569,1.9584,1.9602,1.9605,1.9607,1.9636,1.9642,1.9647,0,0,0,0,0,0,1.9605,1.9595,1.9585,1.9604,1.9603,1.9594,1.9606,1.9593,1.9596,1.9593,1.9577,1.9576,1.9593,1.959,1.9576,1.9608,1.9588,1.9591,1.961,1.9615,1.962,1.9621,1.9551,0,0,0,0,0,1.9614,1.9622,1.9612,1.963,1.963,1.9618,1.9621,1.9611,1.9609,1.9608,1.9603,1.9602,1.9607,1.9611,1.9615,1.9637,1.9636,1.9649,1.9653,1.9657,1.966,1.9672,1.9677,1.9617,1.9617,1.9617,0,0,1.9633,1.9628,1.9634,1.9636,1.9634,1.9642,1.9618,1.9627,1.9633,1.961,1.9623,1.9619,1.9617,1.9635,1.9643,1.9633,1.9676,1.966,1.9663,1.9664,1.9675,1.9681,1.9686,1.9618,1.9618,1.9618,0,0,1.9671,1.9668,1.9683,1.9681,1.9678,1.967,1.9673,1.9667,1.9663,1.9676,1.9659,1.9666,1.9676,1.9675,1.9675,1.9713,1.97,1.9715,1.9739,1.9751,1.9756,1.976,1.9774,1.9779,1.9718,1.9718,1.9718,0,1.9695,1.9706,1.9692,1.9702,1.9704,1.9683,1.9698,1.9697,1.9696,1.9697,1.9686,1.9698,1.9694,1.9713,1.9722,1.9723,1.9727,1.9716,1.9756,1.976,1.9764,1.9777,1.9782,1.972,1.9719,1.9719,1.9719,0,1.9735,1.9744,1.9756,1.9755,1.9758,1.9771,1.9758,1.9763,1.9753,1.9746,1.976,1.9755,1.9758,1.9762,1.9752,1.9779,1.9773,1.9759,1.9739,1.9772,1.9784,1.9789,1.9722,1.9722,1.9721,1.9721,0,0,1.9793,1.9784,1.9789,1.9788,1.9783,1.9789,1.9801,1.9804,1.9809,1.9808,1.9818,1.9826,1.9814,1.9815,1.9805,1.9815,1.9845,1.98,1.98,1.9809,1.9875,1.9886,1.9892,1.9836,1.9837,1.9838,1.9875,0,1.983,1.9849,1.9837,1.9859,1.9866,1.9846,1.9857,1.9855,1.9849,1.9854,1.9848,1.9854,1.9837,1.9837,1.9846,1.984,1.9858,1.9837,1.9846,1.9846,1.9848,1.9898,1.9909,1.9944,1.988,1.988,1.9881,0,1.9876,1.9877,1.99,1.9893,1.9896,1.9906,1.9907,1.9913,1.991,1.9905,1.9906,1.9894,1.9905,1.9885,1.99,1.9886,1.9889,1.9886,1.9887,1.9888,1.9866,1.99,1.9955,1.9961,1.9888,1.9888,1.9887,0,1.9916,1.9924,1.9938,1.9938,1.9931,1.9938,1.9936,1.9932,1.9935,1.9936,1.9938,1.9941,1.9943,1.9945,1.9934,1.992,1.9951,1.993,1.9947,1.9948,1.9955,1.9955,2.0012,1.9956,1.9956,1.9956,1.9956,0,1.9959,1.9974,1.9956,1.9965,1.9981,1.9966,1.9983,1.9978,1.9975,1.9983,1.9966,1.9973,1.9958,1.9964,1.9955,1.9969,1.997,1.9967,1.9964,1.9968,1.9969,1.9971,1.9968,1.9957,1.9957,1.9957,1.9957,0,2.0007,1.9996,2.0011,2.0002,2.0001,2.0013,2.0006,2.0014,2.0007,2.0017,2.0018,2.0007,2.0013,2.0002,2.0007,2.0001,2.0022,2.0015,2.0023,2.0021,2.0039,2.0038,2.0099,2.0107,2.0046,2.0047,2.0047,0,2.0035,2.0046,2.0039,2.0043,2.0041,2.0048,2.0051,2.0036,2.004,2.0038,2.0046,2.0051,2.0054,2.0066,2.0058,2.0062,2.0055,2.0077,2.0056,2.006,2.0056,2.0056,2.0057,2.0081,2.0082,2.0083,2.0083,0,2.0087,2.0081,2.0085,2.0088,2.0091,2.0093,2.0093,2.0097,2.0082,2.0087,2.0093,2.0095,2.01,2.0106,2.0108,2.0105,2.0092,2.009,2.0094,2.0099,2.0103,2.0102,2.0035,2.0088,2.0088,2.0088,2.0087,2.0087,2.0126,2.0135,2.0132,2.0137,2.0136,2.0136,2.0143,2.0137,2.0142,2.0145,2.0136,2.0144,2.0142,2.0143,2.0142,2.0148,2.0139,2.0145,2.0147,2.0148,2.0152,2.0101,2.0148,2.0148,2.0148,2.0148,2.0148,0,2.0178,2.0174,2.0179,2.018,2.0184,2.0171,2.017,2.0175,2.0183,2.0181,2.0185,2.0192,2.0197,2.019,2.0193,2.02,2.0194,2.0202,2.0201,2.0201,2.016,2.0156,2.0206,2.0206,2.0206,2.0206,2.0206,2.0206,2.0205,2.0219,2.0213,2.0226,2.0223,2.0231,2.0232,2.0232,2.0231,2.024,2.0244,2.0239,2.0235,2.0238,2.0242,2.024,2.0243,2.0252,2.0248,2.021,2.0204,2.0198,2.0195,2.0253,2.0253,2.0289,2.0289,2.029]}]]